| time (UTC) | temp C | wind direction | speed KPH | gust KPH | rain 1hr cm | rain 24hr cm | rain mn cm | humidity % | barometer mb |
| 20260504081511 | 10 | 303 | 6.4 | 14.5 | 0.00 | 0.00 | 0.00 | 97 | 1006.8 |
| 20260504050002 | 10 | 290 | 3.2 | 16.1 | 0.00 | 0.00 | 0.00 | 94 | 1005.4 |
| 20260504044620 | 11 | 274 | 4.8 | 19.3 | 0.00 | 0.00 | 0.00 | 92 | 1005.3 |
| 20260504044502 | 11 | 278 | 4.8 | 19.3 | 0.00 | 0.00 | 0.00 | 91 | 1005.2 |
| 20260504043101 | 12 | 40 | 6.4 | 19.3 | 0.00 | 0.00 | 0.00 | 84 | 1005.1 |
| 20260504041558 | 12 | 307 | 4.8 | 17.7 | 0.00 | 0.00 | 0.00 | 82 | 1005.1 |
| 20260504040113 | 12 | 257 | 6.4 | 19.3 | 0.00 | 0.00 | 0.00 | 82 | 1005.2 |
| 20260504034607 | 12 | 262 | 3.2 | 14.5 | 0.00 | 0.00 | 0.00 | 83 | 1005.2 |
| 20260504033118 | 12 | 341 | 4.8 | 19.3 | 0.00 | 0.00 | 0.00 | 84 | 1005.2 |
| 20260504031553 | 12 | 355 | 4.8 | 14.5 | 0.00 | 0.00 | 0.00 | 84 | 1005.2 |
| 20260504030051 | 11 | 39 | 6.4 | 17.7 | 0.00 | 0.00 | 0.00 | 85 | 1005.3 |
| 20260504024549 | 11 | 324 | 4.8 | 14.5 | 0.00 | 0.00 | 0.00 | 86 | 1005.6 |
| 20260504023047 | 11 | 297 | 9.7 | 20.9 | 0.00 | 0.00 | 0.00 | 86 | 1005.9 |
| 20260504021547 | 11 | 233 | 4.8 | 20.9 | 0.00 | 0.00 | 0.00 | 88 | 1005.9 |
| 20260504020041 | 11 | 340 | 3.2 | 17.7 | 0.00 | 0.00 | 0.00 | 88 | 1006.2 |
| 20260504014540 | 11 | 304 | 4.8 | 16.1 | 0.00 | 0.00 | 0.00 | 88 | 1006.3 |
| 20260504013044 | 10 | 311 | 3.2 | 16.1 | 0.00 | 0.00 | 0.00 | 89 | 1006.4 |
| 20260504011532 | 10 | 12 | 6.4 | 16.1 | 0.00 | 0.00 | 0.00 | 89 | 1006.5 |
| 20260504010028 | 10 | 275 | 8.0 | 20.9 | 0.00 | 0.00 | 0.00 | 89 | 1006.7 |
| 20260504004524 | 10 | 309 | 4.8 | 12.9 | 0.00 | 0.00 | 0.00 | 90 | 1006.7 |
| 20260504003037 | 10 | 336 | 4.8 | 14.5 | 0.00 | 0.00 | 0.00 | 90 | 1006.7 |
| 20260504001521 | 10 | 57 | 4.8 | 17.7 | 0.00 | 0.00 | 0.00 | 90 | 1006.8 |
| 20260504000020 | 9 | 126 | 6.4 | 19.3 | 0.00 | 0.00 | 0.00 | 90 | 1006.8 |
| 20260503234519 | 8 | 343 | 3.2 | 12.9 | 0.00 | 0.00 | 0.00 | 90 | 1007.0 |
| 20260503233018 | 9 | 20 | 3.2 | 14.5 | 0.00 | 0.00 | 0.00 | 90 | 1007.0 |
| 20260503231520 | 8 | 314 | 8.0 | 19.3 | 0.00 | 0.00 | 0.00 | 90 | 1007.2 |
| 20260503230016 | 8 | 287 | 4.8 | 16.1 | 0.00 | 0.00 | 0.00 | 89 | 1007.2 |
| 20260503224517 | 8 | 8 | 4.8 | 12.9 | 0.00 | 0.00 | 0.00 | 89 | 1007.2 |
| 20260503223018 | 8 | 301 | 3.2 | 14.5 | 0.00 | 0.00 | 0.00 | 89 | 1007.3 |
| 20260503221513 | 8 | 338 | 6.4 | 17.7 | 0.00 | 0.00 | 0.00 | 90 | 1007.3 |
| 20260503220011 | 8 | 307 | 4.8 | 11.3 | 0.00 | 0.00 | 0.00 | 91 | 1007.2 |
| 20260503214511 | 7 | 279 | 6.4 | 12.9 | 0.00 | 0.00 | 0.00 | 91 | 1007.1 |
| 20260503213007 | 7 | 344 | 3.2 | 11.3 | 0.00 | 0.00 | 0.00 | 91 | 1007.2 |
| 20260503211504 | 7 | 310 | 3.2 | 11.3 | 0.00 | 0.00 | 0.00 | 90 | 1007.1 |
| 20260503210002 | 8 | 323 | 4.8 | 12.9 | 0.00 | 0.00 | 0.00 | 90 | 1007.1 |
| 20260503204604 | 8 | 327 | 3.2 | 12.9 | 0.00 | 0.00 | 0.00 | 89 | 1007.2 |
| 20260503203059 | 8 | 21 | 1.6 | 11.3 | 0.00 | 0.00 | 0.00 | 88 | 1007.2 |
| 20260503201554 | 8 | 319 | 3.2 | 11.3 | 0.00 | 0.00 | 0.00 | 88 | 1007.4 |
| 20260503200053 | 8 | 1 | 3.2 | 11.3 | 0.00 | 0.00 | 0.00 | 87 | 1007.5 |
| 20260503194550 | 8 | 339 | 1.6 | 8.0 | 0.00 | 0.00 | 0.00 | 87 | 1007.5 |
| 20260503193049 | 8 | 41 | 1.6 | 11.3 | 0.00 | 0.00 | 0.00 | 86 | 1007.5 |
| 20260503191546 | 8 | 4 | 3.2 | 11.3 | 0.00 | 0.00 | 0.00 | 86 | 1007.5 |
| 20260503190046 | 8 | 13 | 3.2 | 14.5 | 0.00 | 0.00 | 0.00 | 85 | 1007.5 |
| 20260503184547 | 8 | 323 | 3.2 | 8.0 | 0.00 | 0.00 | 0.00 | 86 | 1007.4 |
| 20260503183041 | 9 | 328 | 3.2 | 12.9 | 0.00 | 0.00 | 0.00 | 85 | 1007.5 |
| 20260503181539 | 9 | 357 | 4.8 | 12.9 | 0.00 | 0.00 | 0.00 | 85 | 1007.7 |
| 20260503180045 | 9 | 338 | 3.2 | 11.3 | 0.00 | 0.00 | 0.00 | 85 | 1007.7 |
| 20260503174536 | 9 | 314 | 4.8 | 11.3 | 0.00 | 0.00 | 0.00 | 85 | 1007.8 |
| 20260503173042 | 9 | 290 | 3.2 | 11.3 | 0.00 | 0.00 | 0.00 | 85 | 1007.9 |
| 20260503171535 | 9 | 286 | 1.6 | 9.7 | 0.00 | 0.00 | 0.00 | 85 | 1007.8 |